Torna al catalogo

STARLINK-2221

AttivoComunicazioniVLEO
NORAD 48571·PAYLOAD·🇺🇸 United States

Lanciato May 15, 2021 da Cape Canaveral Space Force Station

Loading…

Prossimi Passaggi (prossime 24 ore)

TLE

AggiornatoSource: CelesTrak SupGP

Epoca: Sep 14, 2026, 20:50 UTC

1 48571C 21041U   26257.86854167 -.00032301  00000+0 -10387-2 0  2578
2 48571  53.1595 339.1615 0001291  78.1661 245.7545 15.31719419    19

Traccia STARLINK-2221 in tempo reale con AllMySat

Download on the App Store